Location: Galey
(42.9367°N, 0.9147°E)
Time: 01:17:59
(UTC+00:00)

Daily predictions for brighter satellites

Satellite Brightness Start Highest point End
(mag) Time Altitude Azimuth Time Altitude Azimuth Time Altitude Azimuth
STARLINK-1099 4.3 00:00:03 10° NW 00:03:25 52° NNW 00:03:25 52° NNW
Lacrosse 5 4.0 00:01:54 10° WNW 00:03:12 14° W 00:03:12 14° W
Cosmos 1655 Rocket 4.2 00:07:30 49° SW 00:08:48 59° W 00:14:59 10° N
STARLINK-1104 4.4 00:05:02 10° NW 00:08:12 49° NNW 00:08:12 49° NNW
S3M 4.1 00:05:41 10° NNW 00:11:40 56° W 00:12:36 51° SW
COSMOS 2455 3.1 00:11:40 50° SE 00:12:03 51° ESE 00:17:52 10° NE
Cosmos 1726 3.3 00:08:25 10° NNW 00:10:54 40° NNW 00:10:54 40° NNW
Cosmos 2263 4.3 00:12:25 55° WSW 00:13:22 65° WNW 00:18:58 10° NNE
STARLINK-1144 4.5 00:10:01 10° NW 00:12:59 45° NW 00:12:59 45° NW
Cosmos 2228 3.6 00:11:40 10° N 00:15:32 51° ENE 00:15:32 51° ENE
Meteor 2-15 Rocket 4.4 00:13:29 10° N 00:19:40 81° E 00:20:55 59° SSE
Cosmos 1953 3.4 00:16:33 10° NNW 00:19:26 38° NW 00:19:26 38° NW
Cosmos 1340 Rocket 3.5 00:18:01 10° NNW 00:21:08 49° NW 00:21:08 49° NW
Cosmos 1992 Rocket 4.3 00:25:15 52° W 00:25:52 56° WNW 00:31:01 10° NNE
COSMOS 2487 3.9 00:24:58 10° N 00:27:18 36° N 00:27:18 36° N
Cosmos 1833 4.0 00:23:39 10° NNW 00:29:17 75° WSW 00:29:45 70° SSW
USA 215 4.2 00:33:06 30° WSW 00:33:06 30° WSW 00:37:51 10° WNW
Cosmos 1626 3.5 00:34:31 33° ENE 00:34:31 33° ENE 00:37:13 10° NNE
Cosmos 1656 Rocket 3.9 00:33:51 52° WSW 00:34:55 62° WNW 00:40:30 10° NNE
In-Cosmos 22 4.4 00:35:37 48° W 00:36:14 50° WNW 00:41:24 10° N
FALCON 9 R/B 3.2 00:38:25 45° SSE 00:38:49 45° SSE 00:53:54 10° E
Cosmos 1606 Rocket 3.6 00:34:54 10° N 00:38:48 71° NNW 00:38:48 71° NNW
CZ-4 R/B 4.0 00:40:21 10° N 00:45:05 58° WNW 00:45:23 56° W
Meteor 2-21 4.4 00:45:34 56° S 00:46:58 81° E 00:53:10 10° N
Cosmos 2297 Rocket 4.4 00:44:11 10° N 00:48:29 22° NE 00:52:45 10° E
SL-4 R/B 2.3 00:49:12 84° SE 00:49:12 84° SE 00:53:57 10° ENE
NOSS 3-2 (C) 4.2 00:44:25 10° NW 00:51:58 58° WSW 00:54:30 43° S
Cosmos 1674 3.9 00:53:21 35° NW 00:53:21 35° NW 00:56:09 10° N
PSLV R/B 4.1 00:49:16 10° N 00:53:43 51° WNW 00:53:53 51° W
ATLAS CENTAUR R/B 1.4 00:56:56 80° NNW 00:56:56 80° NNW 01:01:00 10° NNE
SL-19 R/B 4.2 00:53:28 10° NNE 00:58:55 81° ESE 01:00:03 58° S
NOSS 3-4 (A) 3.8 00:57:31 38° WSW 00:59:39 58° NW 01:05:55 10° NNE
NOSS 3-4 (C) 3.7 00:57:37 38° WSW 00:59:45 59° NW 01:06:01 10° NNE
SL-16 R/B 3.3 00:56:01 20° SE 00:59:59 46° ENE 01:05:50 10° N
BREEZE-M R/B 3.6 01:01:07 47° ESE 01:01:07 47° ESE 01:03:46 10° ENE
Cosmos 1777 Rocket 4.0 00:55:23 10° NNW 01:00:38 77° ENE 01:01:54 52° SE
Timation 2 Rocket 4.3 00:54:30 10° NNW 01:00:50 63° ENE 01:04:30 25° SE
Spot 1 4.1 01:00:54 71° SE 01:01:23 83° ENE 01:06:13 10° NNW
ATLAS 3B R/B 2.7 01:01:01 10° NW 01:07:52 86° NE 01:12:43 22° SE
BREEZE-M DEB (TANK) 3.2 01:12:38 29° NNE 01:12:38 29° NNE 01:13:59 10° NE
CENTAUR R/B 3.4 01:03:52 10° NW 01:11:48 52° WSW 01:14:47 38° SSW
Meteor 2-21 Rocket 4.4 01:11:40 50° SSW 01:13:22 82° W 01:19:35 10° N
Cosmos 1745 Rocket 4.1 01:12:45 41° SSE 01:14:53 68° E 01:20:59 10° NNE
Cosmos 1892 Rocket 4.0 01:14:51 48° W 01:14:55 48° WNW 01:19:12 10° N
Cosmos 1867 3.5 01:10:55 10° NW 01:16:17 59° WSW 01:16:44 56° SW
RESURS DK-1 2.2 01:19:17 90° WNW 01:19:17 90° WNW 01:23:27 10° NNE
Meteor 1-24 Rocket 3.7 01:22:03 50° SW 01:23:07 60° WNW 01:28:27 10° N
Cosmos 2227 Rocket 3.8 01:19:16 10° N 01:24:23 33° NE 01:29:28 10° ESE
Cosmos 2369 Rocket 4.5 01:21:13 10° W 01:24:37 16° NW 01:28:01 10° N
Cosmos 1356 Rocket 3.6 01:20:59 10° N 01:25:07 65° ENE 01:25:49 54° SE
ATLAS 2AS CENTAUR R/B 3.8 01:23:17 20° WSW 01:28:33 46° NW 01:36:09 10° NNE
CZ-2D R/B 2.3 01:23:24 10° NNE 01:28:38 62° ESE 01:30:15 42° SSE
Helios 1B rocket 4.3 01:25:44 10° NNW 01:28:44 20° WNW 01:29:11 19° WNW
ADEOS II 3.7 01:26:49 10° NE 01:31:09 26° E 01:34:07 16° SE
CZ-4C R/B 3.4 01:30:46 65° SSE 01:31:23 85° ENE 01:35:43 10° NNW
DELTA 2 DEB (DPAF) 4.1 01:34:11 59° SW 01:34:30 61° WSW 01:38:56 10° NNW
STARLINK-1228 3.8 01:31:52 10° NW 01:35:09 53° NNE 01:38:26 10° ESE
STARLINK-1234 3.8 01:33:18 10° NW 01:36:21 49° NNE 01:37:02 39° ENE
STARLINK-1212 4.3 01:34:43 10° NW 01:37:40 38° NNE 01:40:36 10° E
STARLINK-1105 4.3 01:35:12 10° NW 01:38:08 38° NNE 01:41:03 10° E
Resurs 1-4 Rocket 2.1 01:33:05 10° NNE 01:38:24 78° ESE 01:40:11 43° S
USA 81 4.4 01:36:19 34° SSE 01:38:29 61° E 01:43:40 10° NNE
STARLINK-1209 3.6 01:35:32 10° NW 01:38:39 54° NNE 01:38:42 54° NE
STARLINK-1247 4.3 01:36:06 10° NW 01:39:04 39° NNE 01:42:01 10° E
STARLINK-52 3.5 01:39:41 57° N 01:39:41 57° N 01:42:30 10° NE
STARLINK-1227 4.3 01:36:34 10° NW 01:39:30 39° NNE 01:42:26 10° E
STARLINK-1226 4.2 01:37:25 10° NW 01:40:23 40° NNE 01:43:20 10° E
STARLINK-1215 4.2 01:38:20 10° NW 01:41:20 40° NNE 01:44:18 10° ESE
STARLINK-1217 4.1 01:40:06 10° NW 01:43:06 42° NNE 01:46:05 10° ESE
STARLINK-1229 4.1 01:41:01 10° NW 01:44:01 42° NNE 01:47:01 10° ESE
STARLINK-1270 4.1 01:41:53 10° NW 01:44:53 43° NNE 01:47:54 10° ESE
NPP 3.7 01:40:26 10° NNE 01:45:51 78° ESE 01:47:56 39° S
STARLINK-1189 4.0 01:43:43 10° NW 01:46:44 44° NNE 01:49:44 10° ESE
STARLINK-1188 3.9 01:44:36 10° NW 01:47:37 45° NNE 01:50:39 10° ESE
STARLINK-1235 3.4 01:45:14 10° NW 01:48:18 58° NNE 01:51:22 10° ESE
GEOS 3 Rocket 4.3 01:48:43 35° WSW 01:48:43 35° WSW 01:53:17 10° NW
STARLINK-1187 3.6 01:45:41 10° NW 01:48:43 52° NNE 01:51:45 10° ESE
Meteor 1-21 Rocket 4.4 01:46:48 33° S 01:49:19 68° E 01:54:57 10° NNE
STARLINK-1191 3.8 01:47:04 10° NW 01:50:05 47° NNE 01:53:05 10° ESE
Cosmos 1656 4.0 01:48:20 33° S 01:50:42 57° ESE 01:56:13 10° NNE
STARLINK-1221 3.8 01:47:56 10° NW 01:50:57 48° NNE 01:53:58 10° ESE
Cosmos 2058 Rocket 4.3 01:47:22 10° NNW 01:51:01 27° W 01:51:01 27° W
STARLINK-1222 3.8 01:48:49 10° NW 01:51:51 49° NNE 01:54:52 10° ESE
CZ-4C R/B 3.3 01:50:43 22° SSE 01:52:41 29° ESE 01:57:24 10° NE
STARLINK-1214 3.7 01:49:43 10° NW 01:52:45 50° NNE 01:55:47 10° ESE
Cosmos 2084 3.5 01:52:18 51° SW 01:53:22 77° NW 01:57:51 10° NE
SL-08 ROCKET BODY 4.4 01:52:04 38° SW 01:54:16 62° W 02:00:04 10° N
Cosmos 468 Rocket 4.4 01:52:22 31° SSE 01:54:30 52° ESE 01:59:28 10° NNE
SJ 16-02 2.2 01:51:09 10° N 01:55:28 49° ENE 01:59:17 13° SE
COSMOS 2455 4.1 01:54:47 18° W 01:58:14 31° NW 02:03:33 10° NNE
Cosmos 1300 4.2 01:57:23 10° NW 02:00:01 23° WNW 02:00:01 23° WNW
Cosmos 921 Rocket 3.9 02:00:21 31° W 02:01:13 34° WNW 02:05:10 10° N
Meteor 2-10 Rocket 3.6 01:57:21 10° N 02:02:41 77° E 02:06:01 22° SSE
Cosmos 1709 Rocket 3.9 02:01:48 30° S 02:05:00 89° W 02:11:09 10° N
Cosmos 1626 Rocket 4.2 02:06:42 34° WSW 02:07:33 38° WNW 02:11:36 10° N
Cosmos 1626 4.3 02:09:03 14° WNW 02:09:12 14° WNW 02:11:19 10° NW
STARLINK-1320 2.6 02:14:52 74° SW 02:15:06 86° SE 02:18:14 10° NE
STARLINK-1322 2.7 02:15:11 74° SW 02:15:26 87° SE 02:18:34 10° NE
STARLINK-1324 2.7 02:15:32 73° SW 02:15:47 88° SE 02:18:55 10° NE
STARLINK-1294 2.7 02:15:47 72° SW 02:16:04 88° SE 02:19:13 10° NE
STARLINK-1261 2.7 02:16:10 72° SW 02:16:26 89° SSE 02:19:34 10° NE
STARLINK-1325 2.7 02:16:30 70° SW 02:16:48 89° S 02:19:56 10° NE
STARLINK-1333 2.7 02:16:48 70° SW 02:17:07 90° NNW 02:20:14 10° NE
STARLINK-1334 2.7 02:17:07 69° SW 02:17:27 89° WNW 02:20:35 10° NE
Cosmos 2219 3.1 02:11:50 10° NNW 02:17:30 71° WSW 02:22:14 15° SSE
STARLINK-1326 2.7 02:17:28 69° WSW 02:17:48 89° NW 02:20:55 10° NE
Cosmos 1980 Rocket 3.8 02:13:41 11° SSE 02:18:05 27° ESE 02:22:46 10° NE
STARLINK-1323 2.7 02:17:47 68° WSW 02:18:08 88° NW 02:21:15 10° NE
STARLINK-1338 3.0 02:17:39 55° SW 02:18:20 82° SE 02:21:49 10° NE
STARLINK-1349 2.7 02:18:06 67° WSW 02:18:28 88° NNW 02:21:36 10° NE
STARLINK-1336 2.7 02:18:28 67° WSW 02:18:51 87° NNW 02:21:58 10° NE
STARLINK-1331 2.7 02:18:45 65° WSW 02:19:09 86° NNW 02:22:16 10° NE
STARLINK-1344 2.7 02:19:05 65° WSW 02:19:29 86° NNW 02:22:37 10° NE
STARLINK-1343 2.7 02:19:25 64° WSW 02:19:50 85° NNW 02:22:57 10° NE
STARLINK-1346 2.8 02:19:43 62° WSW 02:20:11 85° NW 02:23:20 10° NE
STARLINK-1328 2.8 02:20:05 62° WSW 02:20:31 84° NW 02:23:39 10° NE
STARLINK-1354 2.8 02:20:22 62° WSW 02:20:49 83° NW 02:23:58 10° NE
Cosmos 1328 3.9 02:19:19 31° S 02:21:05 73° E 02:25:04 10° NNE
STARLINK-1347 2.8 02:20:44 61° WSW 02:21:11 83° NW 02:24:19 10° NE
STARLINK-1357 2.8 02:21:02 60° WSW 02:21:30 82° NW 02:24:38 10° NE
STARLINK-1335 2.8 02:21:22 59° WSW 02:21:52 81° NNW 02:24:59 10° NE
STARLINK-1327 2.8 02:21:41 59° WSW 02:22:11 81° NW 02:25:18 10° NE
STARLINK-1371 3.0 02:21:31 49° SW 02:22:22 88° SE 02:25:53 10° NE
STARLINK-1340 2.8 02:22:01 58° WSW 02:22:33 80° NW 02:25:40 10° NE
STARLINK-1356 2.8 02:22:21 57° WSW 02:22:53 80° NNW 02:26:00 10° NE
STARLINK-1345 2.8 02:22:41 56° WSW 02:23:13 79° NW 02:26:20 10° NE
UNK 4.5 02:22:20 31° SW 02:23:21 34° W 02:27:34 10° NNW
STARLINK-1355 2.8 02:22:59 56° WSW 02:23:33 79° NW 02:26:41 10° NE
ERS-2 3.8 02:20:33 10° SE 02:23:50 33° ENE 02:27:10 10° N
STARLINK-1321 2.8 02:23:18 55° WSW 02:23:52 78° NW 02:27:00 10° NE
STARLINK-1358 2.8 02:23:39 54° WSW 02:24:14 77° NW 02:27:22 10° NE
STARLINK-1341 3.1 02:23:29 46° SW 02:24:24 88° NW 02:27:55 10° NE
STARLINK-1332 2.8 02:23:57 54° WSW 02:24:33 77° NW 02:27:40 10° NE
STARLINK-1348 2.8 02:24:18 53° WSW 02:24:55 76° NW 02:28:02 10° NE
STARLINK-1330 2.8 02:24:36 52° WSW 02:25:13 76° NW 02:28:22 10° NE
STARLINK-1363 2.8 02:24:56 52° WSW 02:25:33 75° NW 02:28:41 10° NE
STARLINK-1337 2.9 02:25:15 51° WSW 02:25:55 75° NNW 02:29:01 10° NE
STARLINK-1342 2.9 02:25:35 50° WSW 02:26:15 74° NW 02:29:22 10° NE
STARLINK-1374 3.1 02:25:26 44° WSW 02:26:27 85° NW 02:29:58 10° NE
STARLINK-1364 2.9 02:25:55 50° WSW 02:26:35 73° NW 02:29:43 10° NE
STARLINK-1376 2.9 02:26:15 49° WSW 02:26:56 73° NW 02:30:04 10° NE
STARLINK-1360 2.9 02:26:30 48° WSW 02:27:12 72° NW 02:30:20 10° NE
STARLINK-1361 2.9 02:26:56 48° WSW 02:27:39 72° NW 02:30:46 10° NE
STARLINK-1367 2.9 02:27:10 47° WSW 02:27:55 72° NW 02:31:04 10° NE
STARLINK-1245 4.4 02:24:05 10° NW 02:28:09 53° NNE 02:32:13 10° ESE
STARLINK-1366 2.9 02:27:33 47° WSW 02:28:17 71° NW 02:31:24 10° NE
STARLINK-1339 3.1 02:27:27 41° WSW 02:28:33 82° NW 02:32:03 10° NE
SL-4 R/B 3.7 02:24:51 10° W 02:29:17 35° NNW 02:33:35 10° NE
IRS-1C 4.3 02:24:15 10° NNE 02:29:35 72° ESE 02:33:25 19° S
AQUA 4.2 02:25:23 10° N 02:29:58 49° WNW 02:32:11 27° SW
Cosmos 1812 Rocket 4.3 02:26:11 10° NNW 02:30:17 36° W 02:31:37 29° SW
STARLINK-1377 3.1 02:29:28 39° WSW 02:30:38 79° NW 02:34:09 10° NE
CZ-4B R/B 4.0 02:27:34 10° N 02:32:29 47° WNW 02:35:13 25° SW
STARLINK-1353 3.1 02:31:17 37° WSW 02:32:30 76° NW 02:35:59 10° NE
Cosmos 2297 Rocket 2.1 02:27:25 10° NNW 02:33:01 66° WSW 02:38:36 10° SSE
STARLINK-1233 4.3 02:29:02 10° NW 02:33:08 57° NNE 02:37:13 10° ESE
STARLINK-1375 3.2 02:33:04 35° WSW 02:34:22 73° NNW 02:37:51 10° NE
Cosmos 540 Rocket 4.1 02:32:22 17° S 02:36:12 51° ESE 02:41:10 10° NNE
ATLAS CENTAUR R/B 3.9 02:34:09 10° WNW 02:36:16 13° NW 02:38:20 10° N
Cosmos 2082 4.0 02:31:05 10° NNW 02:36:45 69° ENE 02:42:20 10° SSE
STARLINK-1350 3.3 02:35:22 33° WSW 02:36:45 70° NW 02:40:14 10° NE
FALCON 9 DEB 4.5 02:35:24 19° W 02:37:22 34° NNW 02:40:35 10° NE
STARLINK-1204 4.1 02:34:01 10° NW 02:38:08 62° NNE 02:42:14 10° ESE
Cosmos 990 Rocket 3.9 02:33:39 10° NNW 02:38:54 71° WSW 02:44:06 10° S
STARLINK-1352 3.3 02:37:40 30° WSW 02:39:11 67° NNW 02:42:42 10° NE
CBERS-1 4.2 02:34:22 10° N 02:39:24 60° WNW 02:42:28 23° SW
Cosmos 1825 Rocket 3.7 02:38:21 28° SSW 02:40:28 57° W 02:44:45 10° N
Cosmos 2278 4.3 02:36:08 16° S 02:40:32 51° ESE 02:46:01 10° NE
STARLINK-1368 3.4 02:39:45 29° WSW 02:41:22 64° NW 02:44:53 10° NE
Meteor 1-11 4.4 02:38:11 15° S 02:42:55 74° E 02:48:31 10° NNE
Cosmos 1455 2.7 02:39:31 10° NNW 02:43:01 38° W 02:44:15 29° SW
STARLINK-1238 4.0 02:38:58 10° NW 02:43:06 67° NNE 02:47:13 10° ESE
STARLINK-1369 3.4 02:41:37 27° WSW 02:43:17 61° NNW 02:46:45 10° NE
Meteor 1-28 Rocket 3.9 02:39:53 10° SSE 02:43:35 55° ENE 02:47:17 10° N
SL-16 R/B 3.4 02:41:06 22° SW 02:43:45 29° W 02:49:03 10° NW
CZ-2D R/B 4.4 02:39:53 10° NNE 02:43:51 45° E 02:47:41 11° S
STARLINK-1372 3.5 02:43:57 25° WSW 02:45:45 59° NNW 02:49:15 10° NE
USA 234 4.2 02:39:52 10° ENE 02:45:52 37° SE 02:51:07 13° SSW
Cosmos 2074 Rocket 4.2 02:40:25 12° S 02:46:19 76° E 02:52:37 10° N
ATLAS CENTAUR R/B 2.3 02:43:15 10° NW 02:46:35 65° SW 02:54:43 10° SE
STARLINK-1378 3.6 02:46:05 24° WSW 02:47:59 57° NNW 02:51:29 10° NE
STARLINK-1201 3.8 02:43:57 10° NW 02:48:06 73° NE 02:52:14 10° ESE
Cosmos 841 Rocket 3.6 02:44:27 18° S 02:48:26 73° ESE 02:53:40 10° NNE
STARLINK-1329 3.6 02:46:35 24° WSW 02:48:31 56° NNW 02:52:01 10° NE
STARLINK-1365 3.7 02:47:17 23° W 02:49:15 53° NNW 02:52:43 10° NE
STARLINK-1379 3.7 02:48:13 23° WSW 02:50:13 54° NNW 02:53:42 10° NE
STARLINK-1362 3.7 02:48:47 22° WSW 02:50:49 54° NNW 02:54:18 10° NE
GP-B 3.8 02:47:13 10° NNW 02:51:19 37° W 02:53:37 21° SW
IRS-1D 4.1 02:47:09 10° N 02:52:16 47° WNW 02:55:45 19° SW
STARLINK-1206 3.7 02:48:55 10° NW 02:53:05 79° NE 02:57:13 10° ESE
STARLINK-1373 3.8 02:50:59 21° W 02:53:06 52° NNW 02:56:36 10° NE
COBE Rocket 4.0 02:48:40 10° SSE 02:53:33 80° ENE 02:58:36 10° N
Cosmos-2242 3.4 02:50:33 10° NNW 02:54:37 44° W 02:57:21 19° SSW
NOSS 7 (E) 4.4 02:53:04 25° SW 02:55:04 73° NW 02:58:13 10° NNE
STARLINK-1390 3.8 02:52:58 20° W 02:55:10 50° NNW 02:58:38 10° NE
Cosmos 1400 Rocket 3.0 02:51:41 10° N 02:55:49 78° E 02:59:57 10° SSE
Cosmos 2221 4.0 02:52:32 10° N 02:56:36 38° ENE 03:00:38 10° SE
ATLAS 3B R/B 4.0 02:53:13 10° WNW 02:57:46 19° WSW 02:59:50 17° SW
Cosmos 2184 Rocket 4.0 02:51:53 11° S 02:57:51 89° E 03:04:03 10° N
STARLINK-1205 3.6 02:53:54 10° NW 02:58:04 85° NE 03:02:12 10° SE
SL-08 R/B 3.3 02:54:26 10° S 02:59:06 63° WSW 03:03:44 10° NNW
CZ-4C R/B 4.0 02:56:06 10° SSE 02:59:33 51° ENE 03:03:06 10° N
STARLINK-1218 3.6 02:58:52 10° NW 03:03:01 89° SW 03:07:10 10° SE
Cosmos 1703 4.3 03:02:09 19° WSW 03:04:10 30° WNW 03:07:42 10° NNW
Cosmos 1763 Rocket 4.1 03:03:46 17° SW 03:07:19 42° WNW 03:12:09 10° N
STARLINK-1254 3.5 03:03:51 10° NW 03:08:01 82° SW 03:12:09 10° SE
CZ-2D R/B 3.8 03:04:37 10° NNW 03:08:09 19° WNW 03:11:34 10° WSW
Cosmos 2227 Rocket 2.7 03:03:15 10° NW 03:08:28 39° WSW 03:13:41 10° S
Cosmos 1697 Rocket 2.9 03:04:56 16° SW 03:09:22 62° WNW 03:15:01 10° NNE
ADEOS II 2.7 03:06:03 10° N 03:10:58 42° WNW 03:15:03 14° SW
STARLINK-1228 4.4 03:09:04 10° W 03:11:31 19° SW 03:13:57 10° S
STARLINK-1231 3.5 03:08:51 10° WNW 03:13:00 75° SW 03:17:08 10° SE
STARLINK-1212 3.9 03:10:46 10° WNW 03:13:21 24° SW 03:15:56 10° S
STARLINK-1105 3.9 03:11:15 10° WNW 03:13:49 24° SW 03:16:22 10° S
STARLINK-1247 4.0 03:12:10 10° WNW 03:14:45 24° SW 03:17:18 10° S
STARLINK-1227 4.0 03:12:39 10° WNW 03:15:11 23° SW 03:17:42 10° S
SL-16 R/B 4.2 03:11:06 10° SSE 03:15:32 24° ESE 03:19:58 10° NE
Cosmos 1315 Rocket 4.0 03:12:03 10° N 03:15:50 44° ENE 03:19:35 10° SSE
STARLINK-1226 4.0 03:13:30 10° W 03:16:03 23° SW 03:18:35 10° S
STARLINK-1215 4.0 03:14:28 10° W 03:16:59 22° SW 03:19:31 10° S
Resurs 1-4 Rocket 4.0 03:14:33 10° NNW 03:17:34 16° WNW 03:20:34 10° W
CZ-2C R/B 2.9 03:14:06 10° NNE 03:17:48 69° ESE 03:21:30 10° S
STARLINK-1232 3.5 03:13:51 10° WNW 03:17:58 69° SW 03:22:05 10° SE
STARLINK-1217 4.1 03:16:16 10° W 03:18:44 22° SW 03:21:12 10° S
STARLINK-1229 4.1 03:17:12 10° W 03:19:40 21° SW 03:22:07 10° S
H-2A R/B 2.0 03:15:41 10° S 03:19:56 72° WSW 03:24:21 10° NNW
STARLINK-1270 4.1 03:18:05 10° W 03:20:31 21° SW 03:22:57 10° S
STARLINK-1189 4.2 03:19:58 10° W 03:22:20 20° SW 03:24:43 10° S
ARIANE 5 R/B 2.8 03:17:40 10° N 03:22:34 51° WNW 03:27:15 11° SW
STARLINK-1208 3.6 03:18:49 10° WNW 03:22:55 63° SW 03:27:00 10° SE
BREEZE-M R/B 4.0 03:19:53 10° WNW 03:22:58 26° NNW 03:25:13 10° NE
STARLINK-1188 4.2 03:20:52 10° W 03:23:14 20° SW 03:25:35 10° S
STARLINK-1187 4.4 03:22:10 10° W 03:24:16 17° SW 03:26:21 10° S
STARLINK-1191 4.3 03:23:25 10° W 03:25:39 18° SW 03:27:54 10° S
STARLINK-1221 4.3 03:24:17 10° W 03:26:31 18° SW 03:28:45 10° S
STARLINK-1222 4.3 03:25:13 10° W 03:27:25 18° SW 03:29:36 10° S
STARLINK-1271 3.6 03:23:50 10° WNW 03:27:54 57° SW 03:31:57 10° SE
BREEZE-M DEB (TANK) 1.2 03:26:12 10° WNW 03:28:16 52° SSW 03:30:48 10° SE
STARLINK-1214 4.4 03:26:09 10° W 03:28:18 17° SW 03:30:27 10° S
Spot 4 Rocket 4.2 03:23:25 10° N 03:28:30 63° WNW 03:33:33 10° SSW
SL-24 DEB 4.3 03:24:18 10° N 03:28:58 81° E 03:33:33 10° S
Cosmos 2154 Rocket 4.0 03:23:31 10° S 03:29:49 82° W 03:36:08 10° N
Lacrosse 4 Rocket 1.4 03:25:48 10° NNW 03:30:07 72° WSW 03:34:17 10° SSE
Cosmos 2058 3.5 03:27:05 10° S 03:31:11 59° E 03:35:19 10° NNE
Meteor 1-27 4.3 03:25:47 10° NNW 03:31:16 61° W 03:36:43 10° S
USA 129 0.8 03:30:23 10° N 03:32:16 62° WNW 03:33:05 19° SSW
STARLINK-1154 3.7 03:28:50 10° WNW 03:32:52 52° SW 03:36:53 10° SE
SJ 16-02 3.1 03:30:58 10° WNW 03:33:36 16° W 03:36:11 10° SW
Cosmos 2298 Rocket 4.1 03:28:55 10° NNW 03:34:15 90° SW 03:39:33 10° SSE
IDEFIX/ARIANE 42P 2.6 03:31:15 10° N 03:36:32 76° WNW 03:41:47 10° SSW
STARLINK-1197 3.8 03:33:50 10° WNW 03:37:49 47° SW 03:41:48 10° SSE
STARLINK 1040 3.3 03:35:58 10° SSW 03:38:20 38° SE 03:40:46 10° ENE
CZ-4C R/B 2.8 03:36:02 10° WSW 03:40:51 43° NW 03:46:34 10° NNE
Cosmos 1937 Rocket 4.4 03:37:28 10° NW 03:41:53 28° W 03:46:19 10° SSW
STARLINK-1198 3.9 03:38:49 10° WNW 03:42:45 43° SW 03:46:41 10° SSE
Cosmos 1842 Rocket 3.8 03:40:14 10° NNW 03:44:36 51° W 03:48:55 10° S
Cosmos 1408 3.8 03:42:45 10° SSE 03:46:17 44° E 03:49:50 10° NNE
STARLINK-1199 4.1 03:43:52 10° WNW 03:47:45 39° SW 03:51:36 10° SSE
Meteor 2-2 Rocket 4.4 03:43:03 10° NNW 03:49:03 74° W 03:55:03 10° S
Uosat 12 SS-18 rocket 4.1 03:45:09 10° NW 03:49:25 66° WSW 03:54:01 10° SSE
STARLINK-1269 4.4 03:46:00 10° NW 03:50:06 56° NNE 03:54:10 10° ESE
